Tracking 31027 objects as of 19-Jul-2025
HD Live streaming from Space Station
objects crossing your sky now

STARLINK-5422

Track STARLINK-5422 now!
10-day predictions
STARLINK-5422 is classified as:


NORAD ID: 54804
Int'l Code: 2022-175AY
Perigee: 546.0 km
Apogee: 547.8 km
Inclination: 53.2 °
Period: 95.4 minutes
Semi major axis: 6917 km
RCS: Unknown
Launch date: December 17, 2022
Source: United States (US)
Launch site: AIR FORCE EASTERN TEST RANGE (AFETR)
Your satellite tracking list
ICEYE-X27
Track 1 satellite(s)




NASA's NSSDC Master Catalog

Two Line Element Set (TLE):
1 54804U 22175AY  25199.71145631  .00000590  00000-0  55143-4 0  9998
2 54804  53.2186 359.0067 0001299  88.1776 271.9365 15.08839011144813
Source of the keplerian elements: AFSPC